Date,TemperatureHighF,TemperatureAvgF,TemperatureLowF,DewpointHighF,DewpointAvgF,DewpointLowF,HumidityHigh,HumidityAvg,HumidityLow,PressureMaxIn,PressureMinIn,WindSpeedMaxMPH,WindSpeedAvgMPH,GustSpeedMaxMPH,PrecipitationSumIn
2013-1-4,48.0,39.1,33.0,17.0,12.6,8.0,46,35,20,30.17,30.13,7,3,10,0.00
2013-1-5,46.0,38.2,32.0,20.0,13.2,8.0,49,36,21,30.22,30.06,8,3,13,0.00
2013-1-6,40.0,35.2,31.0,32.0,27.9,14.0,94,77,35,30.06,29.86,19,6,32,0.01
2013-1-7,49.0,38.1,30.0,32.0,23.9,13.0,94,61,24,30.05,29.92,23,9,41,0.08
2013-1-8,57.0,47.0,39.0,33.0,28.1,20.0,61,48,38,30.18,30.04,9,3,15,0.03
2013-1-9,56.0,48.8,40.0,37.0,31.3,29.0,89,52,38,30.18,29.87,13,3,19,0.00
2013-1-10,39.0,28.3,25.0,36.0,24.5,20.0,92,86,77,29.89,29.75,25,13,53,0.01
2013-1-11,26.0,25.1,24.0,22.0,19.9,12.0,90,80,54,29.97,29.85,15,8,45,0.01
2013-1-12,31.0,25.8,22.0,23.0,17.1,7.0,84,70,46,29.98,29.89,10,6,20,0.00
2013-1-13,33.0,25.7,20.0,16.0,10.9,4.0,67,53,39,29.99,29.87,13,3,26,0.00
2013-1-14,32.0,23.6,16.0,8.0,3.0,-2.0,56,41,29,30.20,29.99,7,2,15,0.00
2013-1-15,42.0,32.0,22.0,20.0,11.1,2.0,55,42,31,30.35,30.19,8,3,14,0.00
2013-1-16,50.0,40.5,32.0,25.0,20.3,14.0,63,45,29,30.34,30.23,9,2,15,0.00
2013-1-17,53.0,46.2,41.0,16.0,11.8,7.0,33,25,17,30.27,30.17,9,4,22,0.00
2013-1-18,54.0,48.1,45.0,15.0,8.4,6.0,23,20,15,30.23,30.14,9,3,26,0.00
2013-1-19,55.0,48.1,44.0,10.0,7.3,5.0,24,19,14,30.26,30.16,7,3,25,0.00
2013-1-20,56.0,49.0,41.0,14.0,6.5,3.0,31,18,12,30.21,30.11,9,2,17,0.00
2013-1-21,58.0,49.0,39.0,12.0,6.1,3.0,30,18,11,30.18,30.11,9,3,21,0.00
2013-1-22,57.0,51.4,45.0,12.0,8.0,3.0,21,17,14,30.17,30.08,9,4,22,0.00
2013-1-23,60.0,52.4,43.0,29.0,16.8,9.0,54,25,17,30.12,30.02,12,4,20,0.00
2013-1-24,49.0,45.1,42.0,47.0,42.8,29.0,97,92,58,30.16,30.03,8,3,20,0.18
2013-1-25,46.0,44.8,43.0,44.0,42.9,40.0,97,93,87,30.16,29.96,8,2,19,0.12
2013-1-26,48.0,44.7,42.0,45.0,42.1,37.0,98,91,81,29.96,29.85,18,8,32,0.13
2013-1-27,43.0,33.8,31.0,38.0,29.6,23.0,97,85,73,29.91,29.84,23,16,45,0.01
2013-1-28,32.0,30.2,28.0,26.0,24.7,23.0,89,80,72,30.02,29.86,23,16,44,0.01
2013-1-29,47.0,36.8,31.0,30.0,27.3,25.0,85,69,51,30.17,29.99,28,18,49,0.00
2013-1-30,57.0,48.6,42.0,34.0,28.5,27.0,55,46,36,30.29,30.17,14,4,21,0.00
2013-1-31,59.0,50.5,44.0,33.0,29.5,26.0,59,45,33,30.25,30.16,7,4,14,0.00
2013-2-1,59.0,48.7,41.0,33.0,29.3,27.0,59,48,33,30.22,30.14,10,3,14,0.00
2013-2-2,56.0,51.1,46.0,40.0,30.4,26.0,78,46,34,30.25,30.17,7,2,14,0.00
2013-2-3,56.0,49.6,42.0,38.0,28.9,16.0,78,48,24,30.17,30.03,14,5,26,0.00
2013-2-4,61.0,51.6,43.0,33.0,26.0,21.0,56,38,27,30.10,30.00,13,4,19,0.00
2013-2-5,61.0,52.0,39.0,39.0,25.6,16.0,95,40,21,30.03,29.88,24,11,40,0.00
2013-2-6,51.0,43.9,35.0,38.0,17.7,-10.0,94,47,8,30.03,29.90,25,13,41,0.00
2013-2-7,54.0,42.4,34.0,36.0,20.2,-3.0,91,49,11,30.03,29.82,18,7,28,0.00
2013-2-8,34.0,29.8,28.0,30.0,26.8,25.0,95,89,78,29.82,29.66,22,10,38,0.02
2013-2-9,34.0,30.7,28.0,27.0,22.7,16.0,93,73,51,29.91,29.71,21,14,45,0.01
2013-2-10,41.0,34.5,30.0,24.0,18.7,12.0,72,53,36,29.92,29.85,16,10,27,0.00
2013-2-11,43.0,34.5,28.0,24.0,16.5,9.0,73,49,31,30.12,29.92,9,2,15,0.00
2013-2-12,49.0,38.2,29.0,26.0,16.3,7.0,60,42,24,30.24,30.13,13,4,21,0.00
2013-2-13,55.0,43.2,36.0,31.0,20.4,16.0,54,41,23,30.21,30.11,9,4,15,0.00
2013-2-14,58.0,48.2,39.0,26.0,22.2,18.0,48,36,25,30.21,30.11,12,3,27,0.00
2013-2-15,60.0,49.5,39.0,25.0,20.5,14.0,55,33,20,30.27,30.19,16,4,28,0.00
2013-2-16,60.0,50.8,44.0,19.0,15.7,13.0,35,25,16,30.26,29.97,9,4,22,0.00
2013-2-17,53.0,47.8,44.0,34.0,24.0,13.0,65,40,23,29.97,29.86,20,10,35,0.00
2013-2-18,55.0,45.5,37.0,33.0,19.4,8.0,84,37,19,29.94,29.81,11,5,19,0.00
2013-2-19,37.0,32.9,26.0,32.0,29.3,24.0,95,87,67,29.81,29.47,21,7,44,0.00
2013-2-20,32.0,27.6,24.0,27.0,23.7,22.0,93,85,70,29.84,29.47,26,18,50,0.00
2013-2-21,38.0,33.4,30.0,30.0,26.4,16.0,83,75,42,29.99,29.81,18,10,36,0.00
2013-2-22,47.0,39.4,32.0,28.0,21.6,15.0,66,49,32,30.09,29.98,24,10,39,0.00
2013-2-23,42.0,38.3,33.0,32.0,28.2,21.0,86,68,47,30.03,29.83,25,16,48,0.00
2013-2-24,46.0,37.1,28.0,29.0,14.1,2.0,88,45,19,30.14,29.96,10,3,18,0.00
2013-2-25,52.0,41.4,31.0,23.0,15.7,4.0,48,36,21,30.15,29.99,20,8,41,0.00
2013-2-26,54.0,43.7,37.0,34.0,20.9,4.0,65,42,19,30.12,29.94,22,8,41,0.00
2013-2-27,54.0,44.0,38.0,23.0,11.4,5.0,50,27,18,30.29,30.12,9,3,18,0.00
2013-2-28,59.0,47.7,38.0,27.0,16.3,11.0,48,30,15,30.37,30.26,10,4,15,0.00
2013-3-1,64.0,54.7,43.0,22.0,17.6,13.0,36,24,17,30.36,30.25,8,4,21,0.00
2013-3-2,65.0,57.2,51.0,33.0,22.4,19.0,45,26,18,30.29,30.09,16,3,24,0.00
2013-3-3,56.0,50.3,44.0,38.0,31.2,20.0,76,50,30,30.12,29.92,16,8,34,0.00
2013-3-4,59.0,48.6,42.0,41.0,36.5,33.0,82,64,43,30.03,29.91,23,7,38,0.00
2013-3-5,56.0,46.1,38.0,39.0,34.0,26.0,89,66,32,30.03,29.91,12,4,19,0.00
2013-3-6,48.0,41.0,34.0,37.0,34.7,27.0,90,79,54,29.97,29.87,15,6,29,0.00
2013-3-7,45.0,37.6,33.0,34.0,30.7,27.0,93,77,52,29.86,29.70,14,5,20,0.00
2013-3-8,36.0,33.5,32.0,33.0,30.8,28.0,96,90,85,29.83,29.64,23,11,42,0.43
2013-3-9,45.0,34.5,31.0,34.0,30.5,23.0,96,86,41,30.16,29.83,24,16,42,0.37
2013-3-10,58.0,45.3,34.0,37.0,22.8,14.0,75,43,21,30.26,30.15,12,4,20,0.01
2013-3-11,65.0,51.7,40.0,42.0,20.8,11.0,58,31,15,30.20,30.07,14,5,19,0.00
2013-3-12,69.0,56.1,46.0,26.0,20.3,15.0,35,26,14,30.17,30.07,10,4,18,0.00
2013-3-13,74.0,60.2,49.0,29.0,24.1,20.0,38,26,14,30.23,30.14,12,3,19,0.00
2013-3-14,78.0,63.9,53.0,41.0,28.4,23.0,37,27,15,30.20,30.11,12,5,18,0.00
2013-3-15,74.0,61.7,54.0,50.0,33.9,18.0,62,37,13,30.11,29.96,24,10,42,0.00
2013-3-16,59.0,53.4,50.0,43.0,35.9,17.0,70,53,21,29.98,29.90,24,18,54,0.01
2013-3-17,58.0,50.7,42.0,43.0,31.0,21.0,74,49,28,30.01,29.91,23,17,44,0.01
2013-3-18,65.0,53.5,47.0,35.0,21.7,8.0,64,31,12,30.03,29.91,25,13,39,0.00
2013-3-19,60.0,53.8,47.0,33.0,27.9,18.0,51,37,23,30.09,29.98,20,10,34,0.00
2013-3-20,56.0,50.9,45.0,41.0,36.9,30.0,76,59,43,30.06,29.92,24,13,43,0.00
2013-3-21,53.0,46.6,43.0,42.0,38.0,34.0,86,72,48,29.92,29.80,25,18,49,0.00
2013-3-22,53.0,43.9,38.0,38.0,32.2,27.0,84,65,37,29.92,29.79,26,17,39,0.00
2013-3-23,62.0,49.8,40.0,32.0,15.0,-2.0,73,27,11,30.01,29.88,23,11,33,0.00
2013-3-24,63.0,54.7,48.0,31.0,16.7,-8.0,33,23,8,30.02,29.93,18,9,37,0.00
2013-3-25,67.0,57.5,50.0,29.0,19.7,4.0,35,23,12,29.96,29.89,14,7,24,0.00
2013-3-26,60.0,54.2,48.0,34.0,25.8,14.0,53,34,17,29.93,29.86,15,9,23,0.00
2013-3-27,57.0,51.8,46.0,41.0,37.5,33.0,75,59,43,29.97,29.83,17,10,36,0.00
2013-3-28,59.0,52.5,47.0,42.0,36.8,32.0,79,56,37,30.05,29.93,15,8,33,0.01
2013-3-29,67.0,56.4,47.0,37.0,31.9,28.0,60,40,24,30.09,30.03,12,4,21,0.01
2013-3-30,65.0,56.6,47.0,39.0,29.9,-99.9,62,39,21,30.09,30.01,13,5,21,0.00
2013-3-31,52.0,48.0,44.0,46.0,41.4,37.0,92,78,62,30.04,29.96,12,5,20,0.29
2013-4-1,45.0,42.4,40.0,40.0,38.6,37.0,90,86,81,30.00,29.96,18,13,32,0.29
2013-4-5,52.0,51.3,49.0,44.0,43.1,43.0,81,74,72,30.00,29.99,19,18,27,0.00
2013-4-7,53.0,51.8,51.0,36.0,35.9,35.0,57,55,51,29.83,29.82,21,20,42,0.00
2013-4-8,39.0,35.7,31.0,36.0,32.2,26.0,95,87,75,29.78,29.57,20,10,52,0.29
2013-4-9,49.0,41.7,35.0,30.0,26.1,22.0,72,55,35,30.03,29.76,20,13,37,0.07
2013-4-10,63.0,52.4,40.0,37.0,24.8,15.0,45,34,22,30.13,30.02,17,7,40,0.01
2013-4-11,61.0,55.7,51.0,43.0,39.3,31.0,72,55,38,30.03,29.77,17,12,34,0.00
2013-4-12,71.0,58.8,50.0,46.0,40.3,32.0,73,52,26,29.88,29.76,16,8,25,0.00
2013-4-13,64.0,58.9,53.0,42.0,38.1,30.0,64,47,28,29.88,29.73,19,12,37,0.00
2013-4-14,56.0,52.4,48.0,43.0,36.9,29.0,82,56,44,29.76,29.66,21,13,52,0.00
2013-4-15,49.0,43.9,36.0,39.0,35.7,28.0,93,73,58,29.76,29.65,19,11,41,0.00
2013-4-16,42.0,35.1,29.0,29.0,25.5,20.0,89,69,46,29.89,29.67,18,11,43,0.00
2013-4-17,47.0,40.3,32.0,26.0,20.2,15.0,62,45,27,30.12,29.89,15,8,30,0.00
2013-4-18,59.0,48.5,38.0,23.0,13.0,8.0,34,25,15,30.22,30.12,8,4,19,0.00
2013-4-19,66.0,54.3,42.0,30.0,17.2,9.0,38,24,12,30.20,30.03,19,6,28,0.00
2013-4-20,72.0,62.3,54.0,43.0,31.8,22.0,49,34,16,30.05,29.98,18,9,33,0.00
2013-4-21,75.0,64.7,56.0,37.0,24.2,-5.0,38,23,5,30.04,29.97,23,8,37,0.00
2013-4-22,69.0,64.0,59.0,36.0,29.4,3.0,40,28,9,29.99,29.84,27,17,44,0.00
2013-4-23,71.0,61.5,53.0,40.0,25.1,15.0,50,27,12,29.99,29.83,27,9,46,0.00
2013-4-24,71.0,60.1,48.0,42.0,30.0,20.0,79,34,15,29.91,29.81,12,6,30,0.00
2013-4-25,65.0,57.1,50.0,44.0,40.3,32.0,68,54,40,30.05,29.84,20,11,31,0.00
2013-4-26,74.0,61.0,52.0,48.0,38.6,17.0,66,47,12,30.16,30.04,20,11,30,0.00
2013-4-30,71.0,64.5,58.0,43.0,40.0,32.0,50,41,28,29.81,29.74,27,17,46,0.00
2013-5-1,73.0,63.5,54.0,34.0,12.6,-14.0,45,18,4,30.17,29.81,24,7,38,0.00
2013-5-2,71.0,61.2,53.0,3.0,-4.2,-14.0,12,7,3,30.28,30.17,12,4,23,0.00
2013-5-3,78.0,64.3,52.0,27.0,8.3,-9.0,24,12,3,30.17,29.88,12,5,22,0.00
2013-5-4,73.0,63.8,51.0,41.0,32.0,23.0,56,32,17,29.88,29.71,15,7,25,0.00
2013-5-5,51.0,45.2,42.0,41.0,38.1,29.0,90,77,46,29.83,29.70,12,7,22,0.00
2013-5-6,51.0,44.6,42.0,43.0,40.7,38.0,96,87,67,29.92,29.80,13,6,22,0.07
2013-5-7,51.0,45.6,41.0,42.0,39.5,35.0,92,80,67,29.96,29.88,18,10,34,0.05
2013-5-8,55.0,49.9,45.0,45.0,42.7,39.0,86,76,66,30.03,29.95,17,12,29,0.01
2013-5-9,59.0,53.3,48.0,47.0,45.1,43.0,84,74,61,30.08,30.00,18,12,32,0.00
2013-5-10,70.0,60.9,53.0,53.0,43.9,-99.9,77,58,37,30.16,30.06,19,12,30,0.00
2013-5-11,83.0,70.6,61.0,49.0,39.1,-99.9,56,35,15,30.19,30.12,17,8,28,0.00
2013-5-12,81.0,73.6,66.0,50.0,44.3,37.0,55,36,23,30.20,30.09,14,10,24,0.00
2013-5-13,83.0,75.1,68.0,48.0,38.4,30.0,49,28,15,30.14,30.02,19,7,26,0.00
2013-5-14,75.0,67.4,60.0,43.0,34.5,22.0,44,30,14,30.02,29.93,16,8,33,0.00
2013-5-15,71.0,65.0,60.0,46.0,40.8,34.0,58,42,27,30.01,29.92,25,17,43,0.00
2013-5-16,61.0,52.7,50.0,42.0,24.9,-99.9,72,53,44,29.95,29.85,29,19,43,0.00
2013-5-17,59.0,52.2,45.0,44.0,37.8,-99.9,90,66,49,29.93,29.82,26,17,48,0.00
2013-5-18,63.0,55.4,49.0,37.0,30.6,23.0,58,39,27,30.02,29.90,29,19,48,0.00
2013-5-19,64.0,58.0,51.0,40.0,35.2,27.0,65,43,32,30.01,29.95,24,18,43,0.00
2013-5-20,77.0,65.9,54.0,38.0,29.4,20.0,47,28,12,30.07,29.97,19,7,32,0.00
2013-5-21,74.0,67.3,57.0,40.0,32.7,24.0,51,28,21,30.00,29.83,16,10,31,0.00
2013-5-22,57.0,50.3,43.0,38.0,30.8,20.0,64,47,33,29.85,29.75,25,16,41,0.00
2013-5-23,57.0,49.7,43.0,26.0,20.1,14.0,42,31,23,29.87,29.72,24,17,38,0.00
2013-5-24,67.0,56.1,47.0,36.0,29.1,22.0,47,36,22,29.92,29.86,21,10,34,0.00
2013-5-25,64.0,57.3,50.0,32.0,29.1,25.0,46,35,23,29.95,29.85,24,15,41,0.00
2013-5-26,59.0,53.4,47.0,40.0,36.9,31.0,71,54,43,29.99,29.89,28,20,47,0.00
2013-5-27,61.0,54.7,49.0,42.0,39.2,33.0,74,56,41,29.97,29.85,30,24,49,0.00
2013-5-28,56.0,50.9,47.0,48.0,45.2,42.0,91,81,63,29.86,29.77,30,22,51,0.00
2013-5-29,64.0,56.2,50.0,48.0,44.4,39.0,85,66,50,29.90,29.80,21,12,42,0.00
2013-5-30,70.0,61.2,51.0,41.0,36.5,30.0,64,41,23,29.92,29.81,28,19,50,0.00
2013-5-31,82.0,68.0,58.0,43.0,33.1,5.0,45,29,9,29.99,29.88,28,14,50,0.00
2013-6-1,85.0,74.2,65.0,45.0,31.3,16.0,33,22,8,29.98,29.89,14,6,22,0.00
2013-6-2,84.0,75.8,67.0,47.0,35.1,20.0,44,24,14,29.89,29.78,12,6,24,0.00
2013-6-3,79.0,71.7,66.0,49.0,39.4,34.0,50,32,21,29.87,29.76,13,8,20,0.00
2013-6-4,80.0,72.0,65.0,51.0,46.1,37.0,54,41,22,29.96,29.84,15,8,22,0.00
2013-6-5,88.0,74.2,65.0,52.0,45.3,33.0,54,38,15,29.98,29.93,17,8,23,0.00
2013-6-6,90.0,77.3,68.0,55.0,44.1,30.0,52,33,12,29.97,29.90,15,8,23,0.00
2013-6-7,92.0,79.3,69.0,56.0,43.7,25.0,47,30,9,29.94,29.88,15,8,23,0.00
2013-6-8,94.0,83.1,75.0,52.0,38.0,18.0,42,22,9,29.93,29.84,14,8,26,0.00
2013-6-9,81.0,73.6,60.0,53.0,30.4,14.0,46,23,8,29.95,29.88,14,6,20,0.00
2013-6-10,70.0,62.0,50.0,46.0,32.9,16.0,51,35,18,29.93,29.85,22,7,33,0.00
2013-6-11,85.0,74.9,63.0,44.0,34.2,27.0,31,23,15,30.00,29.91,16,8,31,0.00
2013-6-12,80.0,72.7,64.0,49.0,37.7,30.0,46,29,17,30.01,29.96,15,7,34,0.00
2013-6-13,71.0,64.0,58.0,40.0,29.6,22.0,46,29,17,30.03,29.95,21,13,34,0.00
2013-6-14,80.0,67.5,58.0,41.0,29.9,17.0,38,26,10,29.95,29.88,25,10,33,0.00
2013-6-15,76.0,68.6,60.0,34.0,29.7,22.0,36,24,17,29.96,29.86,21,10,36,0.00
2013-6-16,72.0,65.8,58.0,39.0,32.0,25.0,49,29,21,30.04,29.95,27,18,41,0.00
2013-6-17,73.0,65.3,57.0,42.0,36.3,30.0,49,35,21,30.05,29.96,27,19,40,0.00
2013-6-18,71.0,63.5,55.0,43.0,36.7,32.0,59,38,26,29.95,29.85,25,17,42,0.00
2013-6-19,64.0,55.0,45.0,42.0,32.1,20.0,71,45,20,29.92,29.82,28,20,50,0.00
2013-6-20,68.0,56.9,50.0,38.0,29.1,23.0,54,36,18,29.91,29.83,27,19,41,0.00
2013-6-21,69.0,67.0,65.0,32.0,31.3,30.0,27,26,25,29.92,29.87,19,18,33,0.00
2013-6-22,74.0,69.5,60.0,37.0,32.4,22.0,34,25,18,29.95,29.88,21,14,34,0.00
2013-6-23,69.0,64.8,59.0,45.0,38.6,32.0,56,39,27,29.88,29.77,28,18,42,0.00
2013-6-24,65.0,59.2,54.0,53.0,47.1,37.0,73,65,44,29.91,29.77,25,14,38,0.00
2013-6-25,74.0,65.5,56.0,54.0,50.3,45.0,73,59,46,30.01,29.89,22,15,41,0.00
2013-6-26,80.0,71.9,62.0,55.0,52.9,49.0,75,53,35,30.10,29.99,22,13,35,0.00
2013-6-27,89.0,76.2,68.0,58.0,53.2,46.0,65,46,29,30.14,30.07,17,10,24,0.00
2013-6-28,89.0,80.1,72.0,59.0,56.0,51.0,57,44,32,30.14,30.05,21,11,27,0.00
2013-6-29,90.0,81.3,75.0,53.0,50.6,46.0,46,35,26,30.06,29.97,18,11,26,0.00
2013-6-30,97.0,85.2,77.0,54.0,47.0,39.0,35,27,14,29.98,29.92,18,9,24,0.00
2013-7-1,95.0,83.8,78.0,53.0,48.7,42.0,38,30,19,30.02,29.93,17,8,26,0.00
2013-7-2,92.0,83.1,74.0,51.0,46.8,43.0,39,29,19,30.08,29.99,20,9,35,0.00
2013-7-3,91.0,82.3,78.0,51.0,47.0,42.0,37,29,24,30.03,29.91,19,14,29,0.00
2013-7-4,91.0,83.9,79.0,55.0,50.5,44.0,43,32,27,29.94,29.85,18,10,27,0.00
2013-7-5,87.0,80.9,76.0,56.0,50.6,41.0,47,35,26,29.89,29.83,16,10,26,0.00
2013-7-6,88.0,80.3,74.0,47.0,40.9,35.0,32,25,19,29.88,29.83,11,7,23,0.00
2013-7-7,89.0,81.3,73.0,42.0,35.6,29.0,32,20,14,29.97,29.85,14,9,21,0.00
2013-7-8,88.0,78.9,72.0,39.0,32.6,27.0,26,19,12,30.09,29.97,15,7,19,0.00
2013-7-9,89.0,81.3,73.0,38.0,32.0,26.0,24,17,12,30.14,30.08,12,8,20,0.00
2013-7-10,86.0,79.2,76.0,43.0,33.7,-99.9,27,20,15,30.10,30.00,16,9,26,0.00
2013-7-11,77.0,73.8,69.0,48.0,42.4,34.0,44,33,22,30.05,29.96,15,7,26,0.00
2013-7-12,82.0,74.6,68.0,42.0,37.2,29.0,33,26,18,29.99,29.95,14,7,25,0.00
2013-7-13,84.0,76.6,66.0,43.0,38.3,29.0,41,26,18,30.05,29.98,16,10,28,0.00
2013-7-14,81.0,76.3,72.0,38.0,33.0,23.0,26,21,15,30.06,29.98,18,14,30,0.00
2013-7-15,87.0,76.7,69.0,41.0,33.6,23.0,31,21,17,29.98,29.89,18,9,27,0.00
2013-7-16,80.0,72.3,63.0,37.0,28.5,20.0,31,20,12,30.04,29.90,16,8,26,0.00
2013-7-17,82.0,72.0,63.0,42.0,34.5,22.0,42,27,11,30.10,30.02,17,10,26,0.00
2013-7-18,88.0,74.5,69.0,47.0,35.3,24.0,34,25,15,30.08,29.99,18,10,27,0.00
2013-7-19,92.0,78.5,69.0,47.0,38.6,27.0,35,25,12,30.00,29.93,16,10,26,0.00
2013-7-20,90.0,79.3,70.0,49.0,39.1,-99.9,33,25,17,29.95,29.89,16,8,25,0.00
2013-7-21,87.0,77.5,69.0,57.0,46.1,37.0,51,34,24,30.00,29.88,11,4,19,0.00
2013-7-22,81.0,73.6,68.0,58.0,54.3,47.0,71,52,39,30.04,29.96,11,5,19,0.01
2013-7-23,83.0,73.6,65.0,56.0,51.6,47.0,60,47,34,30.08,30.01,19,7,29,0.00
2013-7-24,83.0,75.3,67.0,54.0,51.0,44.0,64,44,33,30.05,29.99,17,12,26,0.00
2013-7-25,84.0,77.4,71.0,50.0,47.8,44.0,46,36,30,30.11,30.01,19,12,28,0.00
2013-7-26,84.0,76.0,71.0,56.0,51.3,46.0,51,42,36,30.16,30.09,18,10,28,0.00
2013-7-27,86.0,77.8,71.0,55.0,51.1,47.0,51,40,31,30.11,29.96,16,8,24,0.00
2013-7-28,85.0,77.2,69.0,51.0,45.6,37.0,48,34,25,29.97,29.91,16,8,25,0.00
2013-7-29,83.0,73.4,67.0,48.0,40.0,27.0,45,32,13,30.07,29.91,13,6,23,0.00
2013-7-30,83.0,73.8,65.0,51.0,45.3,40.0,50,37,23,30.13,30.07,13,7,21,0.00
2013-7-31,82.0,73.0,65.0,47.0,32.3,12.0,45,26,7,30.12,30.03,15,7,30,0.00
2013-8-1,74.0,67.8,61.0,46.0,36.8,28.0,56,33,22,30.04,29.94,21,16,34,0.00
2013-8-2,76.0,68.1,61.0,34.0,27.2,17.0,34,23,12,29.98,29.92,20,13,30,0.00
2013-8-3,83.0,74.0,66.0,34.0,27.3,19.0,26,18,11,30.01,29.95,19,9,29,0.00
2013-8-4,86.0,75.5,66.0,40.0,29.2,18.0,33,19,9,30.04,29.98,15,7,22,0.00
2013-8-5,84.0,73.9,67.0,39.0,31.4,19.0,33,22,11,30.04,29.99,15,8,23,0.00
2013-8-6,83.0,73.7,66.0,43.0,36.4,26.0,41,27,14,30.05,29.97,18,9,25,0.00
2013-8-7,73.0,67.0,61.0,44.0,38.1,30.0,52,35,20,30.08,30.01,17,12,31,0.00
2013-8-8,77.0,65.3,56.0,47.0,40.2,34.0,70,42,23,30.02,29.95,17,10,30,0.00
2013-8-9,77.0,67.9,60.0,46.0,40.9,32.0,54,38,20,29.98,29.90,15,7,25,0.00
2013-8-10,72.0,66.1,60.0,44.0,41.3,36.0,55,41,29,30.03,29.97,16,12,28,0.00
2013-8-11,76.0,70.9,65.0,48.0,44.2,38.0,49,39,29,30.02,29.97,15,11,25,0.00
2013-8-13,85.0,73.7,67.0,47.0,36.6,-99.9,44,29,17,30.05,30.00,16,8,24,0.00
2013-8-14,85.0,77.0,69.0,43.0,35.7,24.0,39,23,14,30.04,29.98,18,10,25,0.00
2013-8-15,89.0,62.2,71.0,40.0,4.7,-99.9,31,18,10,30.05,30.00,14,7,21,0.00
2013-8-16,88.0,75.0,70.0,50.0,37.3,-99.9,40,29,17,30.07,30.03,13,6,20,0.00
2013-8-17,86.0,76.9,70.0,48.0,39.7,-99.9,39,28,21,30.06,29.95,13,8,23,0.00
2013-8-18,87.0,77.7,68.0,52.0,41.8,31.0,46,29,18,30.03,29.94,14,5,26,0.00
2013-8-19,86.0,69.1,69.0,56.0,34.6,-99.9,59,40,31,30.05,29.97,12,5,25,0.00
2013-8-20,86.0,74.1,68.0,50.0,38.2,-99.9,51,32,13,30.01,29.96,10,4,17,0.00
2013-8-21,85.0,76.6,67.0,41.0,33.5,22.0,30,21,12,30.03,29.97,10,4,19,0.00
2013-8-31,82.0,73.3,69.0,60.0,47.7,-99.9,60,43,33,30.09,30.00,10,6,18,0.00
2013-9-1,83.0,73.6,69.0,59.0,55.5,51.0,65,53,44,30.03,29.97,11,6,16,0.00
2013-9-2,84.0,75.3,68.0,55.0,50.7,46.0,59,43,31,30.03,29.95,10,5,21,0.00
2013-9-3,84.0,75.1,67.0,57.0,50.6,48.0,65,43,29,30.04,29.97,11,5,19,0.00
2013-9-4,88.0,75.7,67.0,49.0,46.7,44.0,49,37,22,30.07,30.01,11,4,19,0.00
2013-9-5,87.0,76.5,67.0,49.0,45.8,42.0,47,35,21,30.05,30.00,9,4,17,0.00
2013-9-6,89.0,77.5,69.0,48.0,42.4,38.0,48,29,20,30.04,29.96,11,5,17,0.00
2013-9-7,86.0,75.5,67.0,39.0,31.7,-99.9,28,21,15,30.03,29.95,12,7,22,0.00
2013-9-8,84.0,77.2,73.0,43.0,37.1,28.0,29,24,19,29.98,29.88,14,8,23,0.00
2013-9-9,81.0,75.0,66.0,47.0,42.3,32.0,48,32,21,29.95,29.84,16,8,26,0.00
2013-9-10,80.0,73.8,65.0,44.0,38.4,31.0,39,28,20,29.95,29.83,18,8,27,0.00
2013-9-11,77.0,71.8,67.0,43.0,40.6,39.0,40,33,28,30.01,29.94,14,10,26,0.00
2013-9-12,80.0,71.6,65.0,44.0,38.6,30.0,45,31,23,30.00,29.93,17,10,27,0.00
2013-9-13,82.0,72.9,67.0,47.0,42.6,34.0,43,34,26,29.95,29.83,18,11,26,0.00
2013-9-14,88.0,73.5,68.0,52.0,43.5,-99.9,47,37,17,29.87,29.80,13,7,19,0.00
2013-9-15,86.0,76.5,70.0,50.0,41.0,34.0,50,30,16,29.92,29.84,13,6,22,0.00
2013-9-16,83.0,73.9,64.0,44.0,34.2,30.0,39,24,16,29.96,29.88,13,5,23,0.00
2013-9-17,74.0,66.6,57.0,47.0,39.0,19.0,59,38,18,29.90,29.79,23,9,37,0.00
2013-9-18,63.0,57.5,55.0,41.0,38.8,29.0,57,50,27,29.95,29.76,19,15,28,0.00
2013-9-19,82.0,69.3,57.0,32.0,27.1,22.0,31,22,12,30.00,29.93,11,4,20,0.00
2013-9-20,78.0,68.8,61.0,43.0,32.2,25.0,42,27,17,29.97,29.93,17,6,28,0.00
2013-9-21,66.0,57.8,48.0,49.0,38.3,-99.9,90,52,35,29.95,29.84,26,13,47,0.02
2013-9-22,54.0,48.6,43.0,44.0,40.1,35.0,91,74,49,29.98,29.81,28,17,48,0.04
2013-9-23,77.0,64.2,50.0,40.0,33.1,27.0,69,35,19,30.09,29.98,16,6,28,0.00
2013-9-24,76.0,68.0,62.0,45.0,32.5,24.0,53,28,18,30.09,29.96,14,7,29,0.00
2013-9-25,61.0,50.4,47.0,45.0,39.5,36.0,84,67,47,29.95,29.75,19,14,34,0.00
2013-9-30,69.0,63.1,57.0,39.0,33.3,28.0,51,33,26,30.11,29.99,25,18,44,0.00
2013-10-1,65.0,61.1,59.0,44.0,41.9,39.0,57,50,41,30.01,29.99,15,12,22,0.00
2013-10-2,66.0,59.9,55.0,47.0,42.7,37.0,73,54,36,30.01,29.95,24,14,38,0.00
2013-10-3,57.0,52.8,47.0,42.0,32.9,25.0,65,48,33,30.00,29.87,31,22,52,0.00
2013-10-4,63.0,54.5,47.0,25.0,14.4,10.0,33,21,13,30.24,30.01,10,4,28,0.00
2013-10-5,68.0,57.0,50.0,20.0,13.0,-99.9,29,19,10,30.34,30.24,12,4,28,0.00
2013-10-6,72.0,62.3,57.0,16.0,12.1,5.0,18,14,7,30.28,30.15,13,3,24,0.00
2013-10-7,73.0,63.0,55.0,24.0,13.1,7.0,26,15,8,30.15,30.00,9,3,17,0.00
2013-10-8,66.0,59.6,47.0,41.0,27.9,21.0,80,31,20,29.99,29.80,11,5,24,0.00
2013-10-9,45.0,44.1,44.0,41.0,40.7,40.0,90,88,85,29.79,29.75,4,2,12,0.00
2013-10-13,53.0,51.3,49.0,34.0,31.0,27.0,53,45,38,30.08,29.99,17,8,30,0.00
2013-10-14,64.0,54.8,45.0,32.0,27.4,23.0,55,36,23,30.17,30.08,9,2,19,0.00
2013-10-15,66.0,56.3,47.0,27.0,24.4,20.0,41,30,21,30.14,30.06,9,2,18,0.00
2013-10-16,64.0,55.6,45.0,30.0,21.2,18.0,38,26,17,30.23,30.13,7,2,23,0.00
2013-10-17,65.0,58.9,54.0,31.0,27.4,20.0,40,30,23,30.14,30.06,14,9,22,0.00
2013-10-19,74.0,63.8,51.0,30.0,14.5,-99.9,25,16,10,30.20,30.13,10,4,17,0.00
2013-10-20,74.0,64.3,54.0,31.0,14.4,6.0,28,15,8,30.12,30.03,10,6,19,0.00
2013-10-21,73.0,62.9,53.0,21.0,13.6,-4.0,20,15,7,30.12,30.04,9,3,21,0.00
2013-10-22,73.0,64.8,58.0,22.0,18.4,15.0,21,17,13,30.15,30.06,11,3,19,0.00
2013-10-23,73.0,63.9,54.0,26.0,21.6,17.0,27,20,12,30.07,30.00,8,3,16,0.00
2013-10-24,70.0,63.9,59.0,30.0,22.8,13.0,30,21,13,30.12,30.02,13,7,21,0.00
2013-10-25,74.0,66.4,58.0,35.0,24.2,19.0,30,21,13,30.22,30.16,9,5,17,0.00
2013-10-26,74.0,62.3,56.0,27.0,20.1,-99.9,28,21,13,30.24,30.14,7,3,17,0.00
2013-10-27,69.0,60.7,54.0,36.0,25.5,15.0,47,27,14,30.14,29.76,11,5,27,0.00
2013-10-28,51.0,41.8,39.0,36.0,31.3,-99.9,85,71,47,29.87,29.70,14,7,34,0.03
2013-10-29,44.0,40.9,39.0,36.0,35.1,34.0,90,80,71,29.98,29.86,17,6,29,0.04
2013-10-30,56.0,45.1,38.0,37.0,31.8,19.0,78,61,41,30.11,29.98,12,4,22,0.00
2013-11-25,57.0,46.0,38.0,38.0,30.7,26.0,70,56,35,30.30,30.22,9,2,13,0.00
2013-11-26,56.0,50.7,46.0,33.0,27.6,23.0,52,41,34,30.29,30.16,8,3,18,0.00
2013-11-27,53.0,47.9,44.0,34.0,29.9,28.0,56,50,43,30.15,29.95,10,4,20,0.00
2013-11-28,50.0,44.6,40.0,35.0,31.1,29.0,70,59,52,30.10,29.92,9,4,23,0.00
2013-11-29,51.0,46.4,43.0,35.0,31.4,29.0,67,56,48,30.24,30.09,9,2,21,0.01
2013-11-30,57.0,47.6,41.0,33.0,26.6,-99.9,64,47,35,30.28,30.20,6,2,13,0.01
2013-12-1,59.0,49.8,42.0,28.0,24.5,19.0,50,37,29,30.36,30.27,6,2,12,0.00
2013-12-2,65.0,55.2,47.0,27.0,18.4,11.0,37,24,12,30.28,29.96,14,5,31,0.00
2013-12-3,52.0,43.0,29.0,40.0,34.2,26.0,91,73,37,29.96,29.68,23,8,48,0.20
2013-12-9,33.0,28.4,25.0,10.0,2.9,-6.0,49,34,22,30.35,30.13,14,4,24,0.01
2013-12-10,43.0,36.6,28.0,11.0,2.2,-6.0,35,23,18,30.33,30.16,8,3,18,0.01
2013-12-11,47.0,41.4,35.0,12.0,8.9,4.0,36,26,21,30.26,30.17,5,2,13,0.00
2013-12-12,52.0,45.8,40.0,16.0,11.2,7.0,33,24,18,30.26,30.14,17,5,27,0.00
2013-12-13,52.0,46.7,41.0,15.0,10.2,4.0,34,23,14,30.30,30.12,18,9,31,0.00
2013-12-14,52.0,45.6,42.0,19.0,14.7,-99.9,38,31,25,30.42,30.30,7,2,19,0.00
2013-12-15,60.0,53.9,48.0,19.0,15.8,11.0,26,22,18,30.41,30.30,7,3,16,0.00
2013-12-19,41.0,37.0,34.0,37.0,33.1,30.0,92,86,71,29.80,29.66,19,6,27,0.01
2013-12-20,45.0,38.3,32.0,32.0,29.3,14.0,92,72,32,29.93,29.78,15,6,21,0.01
2013-12-21,53.0,44.4,40.0,33.0,27.4,-99.9,63,54,36,30.07,29.86,20,9,36,0.00
2013-12-22,55.0,46.0,39.0,29.0,27.1,23.0,63,48,34,30.33,30.11,7,2,12,0.00
2013-12-23,56.0,49.0,44.0,29.0,27.2,23.0,53,43,35,30.43,30.33,6,2,13,0.00
2013-12-24,59.0,50.5,43.0,31.0,27.6,25.0,53,41,31,30.34,30.26,7,2,17,0.00
2013-12-25,55.0,50.9,46.0,28.0,24.2,17.0,44,36,22,30.39,30.30,10,3,18,0.00